Temperature
14 14 15 15 15 15 15 15 15 15 15 15 15 15 15 15 15 15 15 15 14 14 14 14 14 14 14 14 14 14 14 14 14 14 14 14 14 14
14 14 14 14 14 15 15 15 15 14 15 15 15 15 15 15 15 15 15 15 15 14 14 14 14 14 14 14 14 14 14 14 14 14 14 14 14 14
14 14 14 14 14 14 14 14 14 14 14 15 15 15 15 15 15 15 15 15 15 15 14 14 14 14 14 14 14 14 14 14 14 14 14 14 14 14
14 14 14 14 14 14 14 14 14 14 14 15 15 15 15 15 15 15 15 15 15 15 15 15 14 14 14 14 14 14 14 14 14 14 14 14 14 14
14 14 14 14 14 14 14 14 14 14 14 14 15 15 15 15 15 15 15 15 15 15 15 15 15 14 14 14 14 14 14 14 14 14 14 13 13 13
14 14 14 14 14 14 14 14 14 14 14 14 14 14 15 15 15 15 15 15 15 15 15 15 15 15 15 14 14 14 14 14 14 14 13 13 13 13
14 14 14 14 14 14 14 14 14 14 14 13 14 14 14 14 14 14 14 14 14 15 15 15 15 14 14 14 14 14 14 14 14 14 14 13 13 13
14 14 14 14 14 14 14 14 14 13 13 13 13 13 13 13 13 13 12 12 13 14 14 14 14 14 14 14 14 14 14 14 14 14 13 13 13 13
14 13 13 13 13 13 13 13 13 12 12 12 12 12 12 12 12 12 12 12 12 12 12 12 13 13 14 14 14 14 14 14 14 14 14 13 13 13
13 12 12 12 12 12 12 12 12 12 11 11 11 11 11 11 11 10 10 11 11 11 11 11 12 12 13 13 13 13 13 13 13 13 13 13 13 13
11 11 11 11 11 11 11 11 11 11 10 10 10 10 10 10 10 10 10 10 10 10 11 10 11 11 11 12 12 13 13 13 13 13 13 13 13 13
11 10 10 10 10 10 10 10 10 10 10 10 9 9 9 9 9 9 9 8 8 8 9 9 9 9 9 10 11 11 11 12 12 12 12 12 12 12
10 9 9 9 9 9 8 8 8 8 8 8 8 8 8 8 8 8 7 7 7 7 7 7 7 8 7 8 8 9 10 10 11 11 11 12 12 12
9 8 8 8 8 7 7 7 7 7 7 7 7 7 7 7 7 7 7 7 6 6 7 7 7 7 7 7 7 8 9 9 9 10 10 11 11 11
7 7 7 7 6 6 6 6 6 6 5 5 5 5 5 5 5 6 6 6 6 6 6 6 6 6 6 6 6 7 7 8 9 9 10 10 10 10
6 6 6 6 5 5 5 5 5 4 4 4 4 4 4 4 4 4 4 5 5 6 6 6 6 6 6 6 6 6 7 7 8 8 9 9 9 10
5 5 5 5 4 4 4 4 4 3 3 3 3 3 3 3 3 3 3 3 3 4 4 5 6 5 5 5 5 6 6 7 7 8 8 8 9 9
4 4 4 3 3 3 3 3 2 2 2 2 2 2 2 2 2 3 3 3 3 3 3 4 4 4 5 5 6 6 6 6 6 7 7 7 8 8
3 3 2 2 2 2 2 1 1 2 1 1 1 1 1 1 2 2 2 2 2 2 2 3 3 3 3 4 5 5 5 5 6 6 6 7 7 8
2 2 1 1 1 1 1 1 1 1 1 1 1 1 1 1 1 1 1 1 1 2 2 3 3 3 3 3 4 4 5 5 5 6 6 7 7 7
1 1 0 0 0 -0 -0 -0 -0 -0 -0 0 0 -0 -0 0 0 0 1 1 1 2 2 2 3 3 3 3 4 4 5 5 6 5 6 6 6 7
-0 -0 -0 -0 -1 -1 -1 -1 -1 -0 -0 -0 -0 -0 -0 -0 -0 0 0 1 1 1 1 2 3 3 3 3 4 4 5 5 6 6 6 6 6 6
-1 -1 -1 -1 -1 -1 -1 -1 -1 -1 -1 -1 -1 -1 -1 -1 -0 0 0 1 1 1 1 2 2 3 3 3 4 4 4 5 5 5 6 7 7 7
Wind_Speed
3 3 2 1 2 2 2 2 3 1 2 2 2 2 3 5 7 7 8 11 12 13 13 13 13 13 12 12 12 13 13 13 14 14 14 14 14 15
3 3 3 2 2 2 2 2 2 3 3 2 3 3 4 5 6 7 9 12 13 15 16 17 17 17 17 16 16 16 16 16 16 16 16 15 15 15
4 4 5 4 3 3 3 3 3 3 4 4 3 3 3 5 6 7 8 10 11 16 18 19 20 20 20 20 20 19 19 19 19 19 18 17 17 17
6 6 6 4 5 4 4 4 4 5 5 6 4 3 5 5 5 6 7 9 10 15 18 20 22 23 23 23 23 22 22 22 21 21 21 20 20 19
7 7 7 6 6 5 5 5 5 5 5 5 6 4 4 4 4 5 6 7 10 12 15 18 21 23 25 25 25 25 24 24 23 23 23 23 23 22
6 6 6 6 7 6 5 6 5 5 5 6 6 6 5 4 4 5 7 6 7 9 12 14 17 21 23 24 25 26 25 25 25 25 25 25 25 25
4 4 3 3 4 4 4 4 4 4 4 5 6 6 6 5 5 4 8 9 9 7 8 9 10 11 14 17 21 24 25 26 26 26 26 26 26 26
2 1 1 2 2 2 1 1 2 3 4 5 6 7 9 7 6 6 8 9 8 4 4 8 7 10 11 14 18 22 24 25 26 27 27 27 27 27
3 3 3 4 5 3 3 3 3 2 2 4 6 7 7 6 7 9 8 9 11 9 9 13 12 13 12 16 21 24 25 26 27 27 27 28 28 28
5 4 4 4 5 5 4 4 4 4 4 3 4 6 7 8 7 8 10 10 11 10 8 11 13 14 13 15 20 23 26 27 28 28 28 28 28 28
5 5 4 3 5 5 4 4 5 5 5 7 9 10 12 13 10 7 7 8 10 10 7 8 11 13 13 13 16 21 25 26 27 28 28 28 28 27
4 4 5 5 5 5 3 3 5 6 7 8 7 9 9 10 10 6 7 8 8 7 5 5 9 9 9 8 9 12 15 19 24 26 28 28 27 20
3 3 4 6 6 6 3 2 4 6 6 6 6 7 7 7 7 7 7 7 9 9 8 7 10 11 11 12 12 12 12 13 15 16 21 25 26 20
2 2 3 6 6 6 4 5 6 5 4 5 6 7 7 8 8 9 11 11 11 12 13 12 10 12 14 16 15 12 12 13 13 14 14 17 20 23
2 4 5 7 7 5 6 8 6 5 5 6 7 7 8 9 10 10 11 12 13 14 14 13 12 12 13 14 15 15 15 14 14 14 14 14 14 13
4 5 6 6 5 5 6 6 5 5 5 6 7 8 8 8 9 9 10 11 11 12 12 14 13 13 13 15 15 16 15 13 13 14 15 15 15 14
3 3 4 5 6 6 6 7 7 7 7 7 8 8 9 9 9 9 9 10 11 12 14 12 12 12 14 14 15 16 16 16 15 15 14 16 16 15
4 3 4 5 6 6 7 7 7 8 8 8 8 9 9 10 10 10 10 10 12 13 13 13 13 14 13 12 14 16 15 15 15 14 15 16 17 15
4 4 5 6 7 7 7 8 8 9 9 9 9 9 10 10 11 11 11 11 12 13 13 13 12 12 15 16 12 11 14 15 15 15 15 15 17 16
5 5 6 6 7 7 8 8 9 10 9 9 9 10 10 10 11 11 11 13 13 14 14 13 12 11 13 16 15 16 16 16 15 16 16 15 15 16
6 6 6 7 7 8 8 9 9 10 10 10 10 10 10 11 12 12 12 15 14 13 14 14 14 16 14 12 12 13 14 15 17 15 15 14 14 14
7 7 7 8 8 8 9 9 9 10 10 10 10 10 11 11 12 14 13 13 12 13 15 14 15 13 12 13 15 16 16 15 14 18 20 18 13 11
7 8 8 8 8 8 8 9 11 10 10 10 10 11 11 12 12 12 13 13 13 14 14 14 13 12 13 13 14 14 16 16 13 13 13 15 19 22
Wind_Direction
172 171 169 180 176 174 164 159 152 188 270 285 293 298 290 279 274 260 255 258 255 253 253 253 253 255 257 259 262 263 263 263 262 261 260 260 260 260
186 185 195 197 191 182 177 177 173 176 225 258 259 279 289 289 279 259 259 263 261 259 258 257 257 257 257 258 259 260 261 262 262 261 260 260 260 261
202 204 216 202 201 199 190 188 192 186 223 263 250 265 271 276 286 276 269 264 264 263 261 260 259 259 258 258 257 258 258 258 259 259 259 259 259 259
218 217 228 218 219 215 208 213 214 210 222 260 268 261 254 262 271 276 273 267 262 266 265 263 261 260 259 259 258 257 257 257 257 256 256 256 255 256
221 223 233 226 236 234 228 233 235 229 224 247 271 265 267 266 276 279 275 271 270 267 266 264 262 260 259 259 258 258 257 257 256 255 254 253 253 252
226 227 234 231 240 243 241 243 243 243 238 248 268 275 274 271 264 283 292 285 281 280 270 266 263 261 259 258 257 257 256 256 255 254 253 252 251 250
227 225 234 237 243 241 246 252 246 250 256 263 274 283 286 287 283 283 289 295 289 272 273 270 265 264 264 262 259 257 255 254 253 252 251 251 250 249
201 169 107 43 20 14 332 287 244 247 261 266 273 279 286 290 292 290 292 294 293 276 272 282 273 271 268 264 259 256 255 254 253 252 250 249 248 247
95 87 75 53 43 25 13 18 13 356 291 264 275 284 294 300 303 298 289 282 279 283 285 285 279 274 272 267 259 255 255 256 255 254 252 250 248 246
76 83 81 52 32 24 15 12 1 346 322 303 277 283 289 293 287 283 284 283 278 275 268 278 282 278 278 272 263 257 256 256 256 255 254 251 249 247
64 65 72 59 28 24 22 358 341 334 333 331 316 304 301 300 299 295 289 288 289 287 269 266 280 284 282 276 268 258 255 255 256 256 255 253 252 249
53 43 42 32 18 19 14 347 329 324 329 330 326 321 315 310 308 291 284 286 289 291 278 272 288 298 290 277 272 274 271 266 260 258 256 254 253 253
52 26 13 8 7 5 354 328 306 310 317 320 321 321 321 319 317 310 292 280 282 278 282 286 286 286 279 284 284 280 276 276 273 266 258 252 250 243
56 15 353 355 358 354 352 339 336 339 337 333 330 326 323 321 318 312 304 294 280 277 281 281 278 281 284 285 286 283 277 276 274 273 271 262 251 242
31 12 2 356 351 351 347 344 347 348 341 333 325 318 314 310 310 309 307 305 297 288 284 281 279 282 279 280 284 285 285 281 273 269 268 265 262 255
14 3 359 356 353 342 341 344 342 333 325 315 311 309 310 311 310 311 310 313 309 304 299 294 287 283 282 281 281 282 280 276 273 272 270 268 264 257
1 8 7 357 351 345 341 336 335 332 326 319 314 314 313 312 310 311 306 308 303 303 306 304 296 287 278 277 279 277 276 275 272 271 270 270 266 259
32 5 350 342 336 333 330 329 327 325 320 315 312 311 312 312 310 308 305 304 302 302 302 304 305 303 297 283 252 269 275 277 278 274 270 270 270 265
24 357 344 337 332 329 327 324 321 318 314 311 309 310 309 308 308 306 305 304 302 301 301 300 298 296 296 296 286 254 275 284 283 279 273 267 268 269
3 348 339 335 331 328 325 322 318 316 315 313 310 310 309 307 306 305 303 302 302 303 301 298 293 288 287 290 291 288 270 270 275 276 276 273 269 269
348 340 334 330 326 322 320 318 316 313 312 312 309 308 307 305 302 301 301 299 298 298 298 297 295 293 290 286 284 282 282 265 257 266 274 274 273 270
338 332 327 322 320 318 317 317 316 315 315 312 310 307 306 304 301 301 300 299 298 295 295 295 297 298 296 291 290 292 294 292 277 258 252 251 260 261
333 328 323 320 318 316 315 315 315 312 311 310 309 308 306 304 301 300 299 298 297 297 299 300 302 300 297 293 292 293 294 296 295 293 280 260 247 250
Height
1559 1560 1561 1562 1562 1563 1564 1564 1565 1565 1565 1565 1566 1566 1567 1567 1567 1567 1567 1568 1568 1568 1567 1567 1567 1566 1566 1565 1565 1565 1565 1565 1565 1565 1566 1566 1566 1567
1557 1558 1559 1560 1561 1561 1562 1562 1562 1563 1562 1562 1563 1564 1564 1564 1564 1564 1564 1564 1564 1564 1563 1563 1563 1562 1561 1561 1560 1560 1560 1560 1560 1560 1560 1560 1560 1561
1555 1556 1557 1558 1558 1559 1559 1560 1560 1560 1559 1559 1560 1560 1560 1560 1560 1560 1560 1559 1559 1559 1559 1558 1558 1557 1557 1556 1555 1555 1554 1554 1554 1554 1554 1554 1554 1554
1553 1554 1555 1556 1556 1557 1557 1557 1557 1557 1556 1555 1555 1556 1556 1556 1555 1555 1555 1554 1554 1553 1553 1553 1552 1552 1551 1550 1550 1549 1549 1548 1548 1548 1548 1548 1548 1548
1551 1552 1552 1553 1553 1554 1554 1554 1554 1553 1553 1552 1551 1551 1551 1551 1550 1549 1549 1548 1548 1547 1546 1546 1545 1545 1545 1544 1544 1543 1543 1542 1542 1542 1542 1541 1541 1541
1547 1548 1549 1549 1549 1550 1550 1549 1549 1549 1549 1547 1546 1546 1545 1545 1544 1543 1542 1542 1541 1540 1539 1539 1538 1538 1537 1537 1536 1536 1536 1536 1535 1535 1535 1534 1534 1534
1543 1544 1544 1545 1545 1545 1545 1545 1544 1544 1543 1542 1541 1540 1539 1538 1538 1536 1534 1533 1532 1532 1531 1531 1530 1529 1529 1528 1528 1528 1527 1527 1527 1527 1527 1527 1527 1527
1539 1539 1539 1540 1540 1540 1539 1539 1539 1538 1537 1537 1535 1534 1533 1532 1531 1529 1527 1525 1523 1523 1522 1521 1521 1519 1519 1519 1519 1519 1518 1518 1518 1518 1518 1518 1518 1518
1534 1534 1534 1535 1535 1535 1534 1534 1533 1532 1532 1531 1529 1528 1527 1525 1523 1521 1520 1518 1515 1515 1513 1509 1510 1508 1509 1508 1508 1508 1508 1508 1507 1507 1507 1507 1508 1508
1530 1530 1530 1530 1530 1529 1529 1528 1528 1527 1525 1524 1523 1521 1520 1518 1516 1514 1511 1508 1506 1506 1505 1500 1499 1498 1497 1496 1496 1496 1496 1496 1496 1496 1496 1496 1496 1496
1526 1526 1526 1525 1524 1524 1523 1522 1522 1521 1519 1518 1516 1515 1513 1512 1509 1506 1504 1501 1496 1495 1496 1492 1489 1487 1484 1483 1484 1484 1484 1484 1484 1483 1483 1484 1484 1485
1524 1523 1522 1521 1520 1519 1518 1516 1515 1513 1512 1510 1509 1507 1505 1504 1502 1499 1496 1493 1489 1486 1486 1485 1481 1478 1472 1471 1473 1473 1472 1471 1471 1471 1471 1471 1472 1472
1521 1520 1519 1518 1516 1514 1513 1511 1509 1506 1504 1502 1500 1499 1497 1496 1494 1492 1490 1487 1483 1480 1479 1477 1473 1471 1467 1461 1461 1462 1461 1460 1459 1458 1458 1458 1459 1460
1517 1516 1515 1513 1512 1510 1509 1506 1504 1501 1499 1496 1494 1492 1490 1488 1486 1484 1482 1480 1477 1473 1471 1470 1466 1463 1459 1453 1450 1450 1450 1449 1448 1447 1446 1446 1446 1447
1513 1512 1510 1509 1508 1506 1504 1501 1499 1496 1493 1490 1488 1486 1483 1481 1479 1476 1473 1471 1468 1466 1463 1461 1458 1454 1451 1446 1442 1440 1439 1438 1438 1436 1435 1434 1434 1434
1510 1508 1506 1505 1503 1501 1499 1496 1493 1491 1488 1485 1482 1480 1477 1474 1472 1469 1465 1461 1457 1455 1454 1452 1449 1446 1441 1438 1434 1430 1429 1427 1426 1426 1424 1422 1421 1421
1506 1504 1502 1500 1498 1496 1493 1491 1488 1486 1483 1480 1477 1474 1471 1468 1465 1462 1459 1455 1451 1446 1443 1442 1440 1436 1432 1429 1424 1420 1418 1417 1416 1415 1413 1410 1408 1408
1502 1500 1498 1496 1493 1491 1488 1486 1483 1481 1478 1475 1472 1469 1466 1462 1459 1456 1453 1449 1445 1441 1437 1433 1430 1426 1422 1418 1417 1412 1410 1407 1405 1404 1402 1399 1395 1396
1499 1497 1494 1492 1489 1487 1484 1481 1479 1476 1473 1470 1467 1464 1461 1457 1453 1450 1447 1443 1439 1435 1431 1427 1424 1420 1414 1408 1406 1406 1402 1397 1395 1393 1391 1389 1385 1384
1496 1494 1491 1489 1486 1483 1480 1477 1474 1471 1468 1465 1462 1459 1455 1452 1448 1444 1440 1437 1432 1428 1424 1420 1417 1413 1409 1403 1397 1393 1393 1389 1385 1382 1380 1378 1375 1374
1494 1491 1488 1485 1482 1479 1476 1473 1469 1466 1463 1460 1456 1453 1449 1446 1442 1438 1434 1430 1426 1421 1417 1413 1410 1406 1401 1396 1389 1384 1382 1380 1377 1374 1371 1368 1365 1364
1491 1488 1485 1482 1478 1475 1472 1469 1465 1462 1458 1455 1451 1447 1444 1440 1436 1431 1427 1423 1419 1415 1410 1406 1402 1398 1394 1389 1382 1377 1372 1369 1367 1364 1362 1360 1357 1354
1488 1485 1482 1478 1475 1471 1468 1464 1461 1457 1454 1450 1446 1442 1438 1434 1430 1426 1421 1417 1413 1409 1404 1399 1395 1391 1386 1382 1376 1371 1366 1362 1358 1355 1352 1350 1349 1347